Location: Nelson
(38.9945°N, 93.0321°W)
Time: 17:07:05
(UTC+00:00)

ACS3 Solar Sail - Pass Details

Date: 27 June 2024
Orbit: 993 x 1023 km, 97.4° (Epoch: 21 July)

Event Time Altitude Azimuth Distance (km) Brightness Sun altitude
Exits shadow 03:05:30 18° 138° (SE) 2,207 6.0 -13.5°
Maximum altitude 03:09:50 48° 72° (ENE) 1,285 5.3 -14.1°
Drops below altitude 10° 03:15:45 10° 0° (N) 2,765 7.9 -14.9°
Sets 03:18:18 0° 355° (N) 3,717 8.8 -15.2°
